Wetterdaten: Dienstag, 30.04.2013
Datum Zeit Temperatur Luftfeuchte Luftdruck Regen Wind Richtung Richtung Taupunkt Windchill Windben
30.04.2013 00:00 5,9 C 91 % 1020,3 hPa 0,0 l/m 0,0 km/h (0 Bft) O-SO 112 4,5 C 5,7 C 0,0 km/h (0 Bft)
30.04.2013 00:05 6,0 C 90 % 1020,2 hPa 0,0 l/m 0,3 km/h (0 Bft) N-NO 22 4,5 C 5,7 C 5,1 km/h (1 Bft)
30.04.2013 00:10 6,4 C 90 % 1020,2 hPa 0,0 l/m 0,6 km/h (0 Bft) N-NO 22 4,9 C 6,3 C 2,4 km/h (1 Bft)
30.04.2013 00:15 6,6 C 90 % 1020,2 hPa 0,0 l/m 1,1 km/h (1 Bft) N 360 5,1 C 6,6 C 4,3 km/h (1 Bft)
30.04.2013 00:20 7,0 C 91 % 1020,2 hPa 0,0 l/m 2,1 km/h (1 Bft) N 360 5,6 C 6,9 C 5,3 km/h (1 Bft)
30.04.2013 00:25 7,0 C 92 % 1019,8 hPa 0,0 l/m 2,3 km/h (1 Bft) N-NW 337 5,8 C 7,1 C 3,4 km/h (1 Bft)
30.04.2013 00:30 6,8 C 92 % 1019,8 hPa 0,0 l/m 2,3 km/h (1 Bft) S-SO 157 5,6 C 7,2 C 6,4 km/h (2 Bft)
30.04.2013 00:35 6,8 C 92 % 1019,8 hPa 0,0 l/m 1,6 km/h (1 Bft) W-NW 292 5,6 C 7,2 C 0,0 km/h (0 Bft)
30.04.2013 00:40 6,6 C 92 % 1019,8 hPa 0,0 l/m 0,8 km/h (0 Bft) N 360 5,4 C 7,1 C 2,3 km/h (1 Bft)
30.04.2013 00:45 6,6 C 92 % 1019,6 hPa 0,0 l/m 1,1 km/h (1 Bft) N-NO 22 5,4 C 7,0 C 3,1 km/h (1 Bft)
30.04.2013 00:50 6,7 C 92 % 1019,6 hPa 0,0 l/m 2,4 km/h (1 Bft) N-NW 337 5,5 C 7,1 C 8,5 km/h (2 Bft)
30.04.2013 00:55 6,5 C 92 % 1019,6 hPa 0,0 l/m 3,2 km/h (1 Bft) N 360 5,3 C 7,1 C 2,9 km/h (1 Bft)
30.04.2013 01:00 6,4 C 92 % 1019,6 hPa 0,0 l/m 1,8 km/h (1 Bft) NO 45 5,2 C 6,9 C 0,0 km/h (0 Bft)
30.04.2013 01:05 6,4 C 92 % 1019,3 hPa 0,0 l/m 0,5 km/h (0 Bft) O 90 5,2 C 6,6 C 0,0 km/h (0 Bft)
30.04.2013 01:10 6,5 C 92 % 1019,3 hPa 0,0 l/m 0,3 km/h (0 Bft) N-NO 22 5,3 C 6,4 C 0,0 km/h (0 Bft)
30.04.2013 01:15 6,4 C 92 % 1019,3 hPa 0,0 l/m 1,1 km/h (1 Bft) N 360 5,2 C 6,4 C 3,5 km/h (1 Bft)
30.04.2013 01:20 6,0 C 92 % 1019,3 hPa 0,0 l/m 1,6 km/h (1 Bft) W-NW 292 4,8 C 6,4 C 2,3 km/h (1 Bft)
30.04.2013 01:25 5,8 C 93 % 1019,2 hPa 0,0 l/m 1,0 km/h (0 Bft) SO 135 4,8 C 6,3 C 0,0 km/h (0 Bft)
30.04.2013 01:30 6,3 C 92 % 1019,2 hPa 0,0 l/m 1,1 km/h (1 Bft) N-NO 22 5,1 C 6,1 C 4,0 km/h (1 Bft)
30.04.2013 01:35 6,4 C 92 % 1019,2 hPa 0,0 l/m 1,9 km/h (1 Bft) N-NO 22 5,2 C 6,2 C 3,4 km/h (1 Bft)
30.04.2013 01:40 6,3 C 92 % 1019,2 hPa 0,0 l/m 1,9 km/h (1 Bft) N-NW 337 5,1 C 6,4 C 2,3 km/h (1 Bft)
30.04.2013 01:45 6,3 C 92 % 1019,1 hPa 0,0 l/m 1,0 km/h (0 Bft) S 180 5,1 C 6,4 C 0,0 km/h (0 Bft)
30.04.2013 01:50 6,3 C 92 % 1019,1 hPa 0,0 l/m 0,6 km/h (0 Bft) N-NO 22 5,1 C 6,4 C 1,8 km/h (1 Bft)
30.04.2013 01:55 6,2 C 92 % 1019,1 hPa 0,0 l/m 1,1 km/h (1 Bft) NO 45 5,0 C 6,3 C 3,4 km/h (1 Bft)
30.04.2013 02:00 6,2 C 93 % 1019,1 hPa 0,0 l/m 1,4 km/h (1 Bft) W-SW 247 5,2 C 6,1 C 0,0 km/h (0 Bft)
30.04.2013 02:05 6,0 C 93 % 1018,9 hPa 0,0 l/m 1,0 km/h (0 Bft) N-NO 22 5,0 C 6,0 C 2,3 km/h (1 Bft)
30.04.2013 02:10 6,2 C 93 % 1018,9 hPa 0,0 l/m 1,0 km/h (0 Bft) O 90 5,2 C 6,0 C 2,4 km/h (1 Bft)
30.04.2013 02:15 6,0 C 93 % 1018,9 hPa 0,0 l/m 1,0 km/h (0 Bft) S 180 5,0 C 5,9 C 0,0 km/h (0 Bft)
30.04.2013 02:20 5,7 C 94 % 1018,9 hPa 0,0 l/m 0,2 km/h (0 Bft) NW 315 4,8 C 5,7 C 0,0 km/h (0 Bft)
30.04.2013 02:25 5,5 C 94 % 1018,5 hPa 0,0 l/m 0,0 km/h (0 Bft) O 90 4,6 C 5,5 C 0,0 km/h (0 Bft)
30.04.2013 02:30 5,5 C 94 % 1018,5 hPa 0,0 l/m 0,0 km/h (0 Bft) NO 45 4,6 C 5,3 C 0,0 km/h (0 Bft)
30.04.2013 02:35 5,5 C 93 % 1018,5 hPa 0,0 l/m 0,0 km/h (0 Bft) O 90 4,5 C 5,2 C 0,0 km/h (0 Bft)
30.04.2013 02:40 5,4 C 93 % 1018,5 hPa 0,0 l/m 0,0 km/h (0 Bft) N-NW 337 4,4 C 5,2 C 0,0 km/h (0 Bft)
30.04.2013 02:45 5,2 C 93 % 1018,2 hPa 0,0 l/m 0,0 km/h (0 Bft) S 180 4,2 C 5,2 C 0,0 km/h (0 Bft)
30.04.2013 02:50 5,4 C 93 % 1018,2 hPa 0,0 l/m 0,0 km/h (0 Bft) NO 45 4,4 C 5,1 C 0,0 km/h (0 Bft)
30.04.2013 02:55 5,4 C 94 % 1018,2 hPa 0,0 l/m 0,2 km/h (0 Bft) W-NW 292 4,5 C 5,2 C 0,0 km/h (0 Bft)
30.04.2013 03:00 5,2 C 93 % 1018,2 hPa 0,0 l/m 0,3 km/h (0 Bft) S 180 4,2 C 5,2 C 0,0 km/h (0 Bft)
30.04.2013 03:05 5,2 C 93 % 1018,2 hPa 0,0 l/m 0,2 km/h (0 Bft) O-SO 112 4,2 C 5,1 C 0,0 km/h (0 Bft)
30.04.2013 03:10 5,6 C 94 % 1018,2 hPa 0,0 l/m 0,8 km/h (0 Bft) N-NO 22 4,7 C 5,2 C 0,0 km/h (0 Bft)
30.04.2013 03:15 5,5 C 94 % 1018,2 hPa 0,0 l/m 1,3 km/h (1 Bft) O 90 4,6 C 5,3 C 3,4 km/h (1 Bft)
30.04.2013 03:20 5,2 C 94 % 1018,2 hPa 0,0 l/m 1,3 km/h (1 Bft) S-SW 202 4,3 C 5,4 C 1,6 km/h (1 Bft)
30.04.2013 03:25 5,2 C 94 % 1018,2 hPa 0,0 l/m 1,6 km/h (1 Bft) S-SO 157 4,3 C 5,3 C 2,3 km/h (1 Bft)
30.04.2013 03:30 5,2 C 94 % 1018,2 hPa 0,0 l/m 0,6 km/h (0 Bft) O-NO 67 4,3 C 5,2 C 0,0 km/h (0 Bft)
30.04.2013 03:35 5,4 C 94 % 1018,2 hPa 0,0 l/m 1,0 km/h (0 Bft) O 90 4,5 C 5,2 C 2,4 km/h (1 Bft)
30.04.2013 03:40 5,5 C 94 % 1018,2 hPa 0,0 l/m 1,4 km/h (1 Bft) SO 135 4,6 C 5,4 C 2,6 km/h (1 Bft)
30.04.2013 03:45 5,4 C 94 % 1017,9 hPa 0,0 l/m 1,1 km/h (1 Bft) O 90 4,5 C 5,4 C 0,0 km/h (0 Bft)
30.04.2013 03:50 5,4 C 94 % 1017,9 hPa 0,0 l/m 1,1 km/h (1 Bft) O-NO 67 4,5 C 5,4 C 5,1 km/h (1 Bft)
30.04.2013 03:55 5,4 C 94 % 1017,9 hPa 0,0 l/m 1,3 km/h (1 Bft) O-SO 112 4,5 C 5,4 C 0,0 km/h (0 Bft)
30.04.2013 04:00 5,4 C 94 % 1017,9 hPa 0,0 l/m 1,4 km/h (1 Bft) O-SO 112 4,5 C 5,4 C 2,1 km/h (1 Bft)
30.04.2013 04:05 5,5 C 94 % 1017,8 hPa 0,0 l/m 1,0 km/h (0 Bft) NO 45 4,6 C 5,4 C 1,6 km/h (1 Bft)
30.04.2013 04:10 5,6 C 94 % 1017,8 hPa 0,0 l/m 1,4 km/h (1 Bft) NO 45 4,7 C 5,5 C 1,8 km/h (1 Bft)
30.04.2013 04:15 5,6 C 94 % 1017,8 hPa 0,0 l/m 1,6 km/h (1 Bft) NO 45 4,7 C 5,6 C 2,7 km/h (1 Bft)
30.04.2013 04:20 5,5 C 94 % 1017,8 hPa 0,0 l/m 1,0 km/h (0 Bft) O 90 4,6 C 5,6 C 0,0 km/h (0 Bft)
30.04.2013 04:25 5,5 C 94 % 1017,7 hPa 0,0 l/m 0,8 km/h (0 Bft) NO 45 4,6 C 5,5 C 3,4 km/h (1 Bft)
30.04.2013 04:30 5,4 C 94 % 1017,7 hPa 0,0 l/m 1,4 km/h (1 Bft) O-SO 112 4,5 C 5,5 C 1,6 km/h (1 Bft)
30.04.2013 04:35 5,4 C 94 % 1017,7 hPa 0,0 l/m 1,3 km/h (1 Bft) N 360 4,5 C 5,5 C 1,8 km/h (1 Bft)
30.04.2013 04:40 5,4 C 94 % 1017,7 hPa 0,0 l/m 0,5 km/h (0 Bft) S-SW 202 4,5 C 5,4 C 0,0 km/h (0 Bft)
30.04.2013 04:45 5,3 C 94 % 1017,6 hPa 0,0 l/m 0,3 km/h (0 Bft) O-NO 67 4,4 C 5,4 C 0,0 km/h (0 Bft)
30.04.2013 04:50 5,3 C 94 % 1017,6 hPa 0,0 l/m 0,5 km/h (0 Bft) S 180 4,4 C 5,3 C 2,3 km/h (1 Bft)
30.04.2013 04:55 5,3 C 94 % 1017,6 hPa 0,0 l/m 1,1 km/h (1 Bft) NO 45 4,4 C 5,3 C 2,7 km/h (1 Bft)
30.04.2013 05:00 5,3 C 94 % 1017,6 hPa 0,0 l/m 1,3 km/h (1 Bft) W-SW 247 4,4 C 5,3 C 1,9 km/h (1 Bft)
30.04.2013 05:05 5,4 C 94 % 1017,6 hPa 0,0 l/m 1,0 km/h (0 Bft) NO 45 4,5 C 5,3 C 3,1 km/h (1 Bft)
30.04.2013 05:10 5,4 C 94 % 1017,6 hPa 0,0 l/m 0,6 km/h (0 Bft) W 270 4,5 C 5,4 C 0,0 km/h (0 Bft)
30.04.2013 05:15 5,5 C 94 % 1017,6 hPa 0,0 l/m 0,8 km/h (0 Bft) W-NW 292 4,6 C 5,4 C 0,0 km/h (0 Bft)
30.04.2013 05:20 5,6 C 94 % 1017,6 hPa 0,0 l/m 0,2 km/h (0 Bft) W-NW 292 4,7 C 5,5 C 0,0 km/h (0 Bft)
30.04.2013 05:25 5,6 C 94 % 1017,4 hPa 0,0 l/m 0,0 km/h (0 Bft) S 180 4,7 C 5,6 C 2,3 km/h (1 Bft)
30.04.2013 05:30 5,8 C 95 % 1017,4 hPa 0,0 l/m 1,1 km/h (1 Bft) S 180 5,1 C 5,7 C 0,0 km/h (0 Bft)
30.04.2013 05:35 5,8 C 95 % 1017,4 hPa 0,0 l/m 1,1 km/h (1 Bft) O 90 5,1 C 5,7 C 0,0 km/h (0 Bft)
30.04.2013 05:40 5,8 C 95 % 1017,4 hPa 0,0 l/m 0,0 km/h (0 Bft) S 180 5,1 C 5,8 C 0,0 km/h (0 Bft)
30.04.2013 05:45 5,9 C 95 % 1017,7 hPa 0,0 l/m 0,3 km/h (0 Bft) O-NO 67 5,2 C 5,8 C 2,7 km/h (1 Bft)
30.04.2013 05:50 5,9 C 95 % 1017,7 hPa 0,0 l/m 0,5 km/h (0 Bft) NO 45 5,2 C 5,9 C 0,0 km/h (0 Bft)
30.04.2013 05:55 5,9 C 95 % 1017,7 hPa 0,0 l/m 0,3 km/h (0 Bft) O 90 5,2 C 6,0 C 0,0 km/h (0 Bft)
30.04.2013 06:00 6,0 C 94 % 1017,7 hPa 0,0 l/m 0,0 km/h (0 Bft) W-NW 292 5,1 C 6,0 C 0,0 km/h (0 Bft)
30.04.2013 06:05 6,0 C 94 % 1017,7 hPa 0,0 l/m 0,0 km/h (0 Bft) S-SW 202 5,1 C 6,0 C 0,0 km/h (0 Bft)
30.04.2013 06:10 6,1 C 94 % 1017,7 hPa 0,0 l/m 0,0 km/h (0 Bft) S-SW 202 5,2 C 6,1 C 0,0 km/h (0 Bft)
30.04.2013 06:15 6,2 C 94 % 1017,7 hPa 0,0 l/m 0,0 km/h (0 Bft) W-SW 247 5,3 C 6,2 C 0,0 km/h (0 Bft)
30.04.2013 06:20 6,3 C 94 % 1017,7 hPa 0,0 l/m 0,0 km/h (0 Bft) W-SW 247 5,4 C 6,3 C 0,0 km/h (0 Bft)
30.04.2013 06:25 6,3 C 94 % 1017,8 hPa 0,0 l/m 0,0 km/h (0 Bft) O 90 5,4 C 6,3 C 0,0 km/h (0 Bft)
30.04.2013 06:30 6,4 C 94 % 1017,8 hPa 0,0 l/m 0,0 km/h (0 Bft) NW 315 5,5 C 6,4 C 0,0 km/h (0 Bft)
30.04.2013 06:35 6,4 C 94 % 1017,8 hPa 0,0 l/m 0,0 km/h (0 Bft) N-NO 22 5,5 C 6,4 C 0,0 km/h (0 Bft)
30.04.2013 06:40 6,5 C 94 % 1017,8 hPa 0,0 l/m 0,2 km/h (0 Bft) W-NW 292 5,6 C 6,5 C 0,0 km/h (0 Bft)
30.04.2013 06:45 6,5 C 94 % 1018,2 hPa 0,0 l/m 0,8 km/h (0 Bft) NW 315 5,6 C 6,6 C 3,4 km/h (1 Bft)
30.04.2013 06:50 6,6 C 94 % 1018,2 hPa 0,0 l/m 1,6 km/h (1 Bft) W-NW 292 5,7 C 6,6 C 3,5 km/h (1 Bft)
30.04.2013 06:55 6,6 C 94 % 1018,2 hPa 0,0 l/m 2,1 km/h (1 Bft) N-NW 337 5,7 C 6,6 C 1,6 km/h (1 Bft)
30.04.2013 07:00 6,6 C 94 % 1018,2 hPa 0,0 l/m 1,8 km/h (1 Bft) NO 45 5,7 C 6,6 C 0,0 km/h (0 Bft)
30.04.2013 07:05 6,6 C 94 % 1018,4 hPa 0,0 l/m 1,4 km/h (1 Bft) NW 315 5,7 C 6,7 C 1,8 km/h (1 Bft)
30.04.2013 07:10 6,6 C 94 % 1018,4 hPa 0,0 l/m 1,8 km/h (1 Bft) N-NW 337 5,7 C 6,7 C 5,5 km/h (1 Bft)
30.04.2013 07:15 6,6 C 94 % 1018,4 hPa 0,0 l/m 2,7 km/h (1 Bft) N-NW 337 5,7 C 6,7 C 3,2 km/h (1 Bft)
30.04.2013 07:20 6,6 C 94 % 1018,4 hPa 0,0 l/m 2,9 km/h (1 Bft) N 360 5,7 C 6,7 C 4,2 km/h (1 Bft)
30.04.2013 07:25 6,6 C 94 % 1018,0 hPa 0,0 l/m 2,3 km/h (1 Bft) N 360 5,7 C 6,7 C 3,7 km/h (1 Bft)
30.04.2013 07:30 6,7 C 94 % 1018,0 hPa 0,0 l/m 2,4 km/h (1 Bft) N-NW 337 5,8 C 6,7 C 4,3 km/h (1 Bft)
30.04.2013 07:35 6,6 C 94 % 1018,0 hPa 0,0 l/m 3,1 km/h (1 Bft) NW 315 5,7 C 6,7 C 3,9 km/h (1 Bft)
30.04.2013 07:40 6,7 C 94 % 1018,0 hPa 0,0 l/m 2,7 km/h (1 Bft) NW 315 5,8 C 6,8 C 3,5 km/h (1 Bft)
30.04.2013 07:45 6,6 C 94 % 1018,0 hPa 0,0 l/m 2,9 km/h (1 Bft) N-NW 337 5,7 C 6,8 C 4,3 km/h (1 Bft)
30.04.2013 07:50 6,7 C 94 % 1018,0 hPa 0,0 l/m 4,0 km/h (1 Bft) N-NW 337 5,8 C 6,4 C 6,9 km/h (2 Bft)
30.04.2013 07:55 6,6 C 94 % 1018,0 hPa 0,0 l/m 3,7 km/h (1 Bft) W-NW 292 5,7 C 6,6 C 4,3 km/h (1 Bft)
30.04.2013 08:00 6,7 C 94 % 1018,0 hPa 0,0 l/m 3,1 km/h (1 Bft) W-NW 292 5,8 C 6,7 C 4,5 km/h (1 Bft)
30.04.2013 08:05 6,7 C 94 % 1018,0 hPa 0,0 l/m 2,6 km/h (1 Bft) W-SW 247 5,8 C 6,8 C 2,1 km/h (1 Bft)
30.04.2013 08:10 6,7 C 94 % 1018,0 hPa 0,0 l/m 2,7 km/h (1 Bft) W-NW 292 5,8 C 6,8 C 0,0 km/h (0 Bft)
30.04.2013 08:15 6,6 C 94 % 1018,0 hPa 0,0 l/m 3,2 km/h (1 Bft) N-NW 337 5,7 C 6,8 C 3,2 km/h (1 Bft)
30.04.2013 08:20 6,7 C 94 % 1018,0 hPa 0,0 l/m 2,6 km/h (1 Bft) N 360 5,8 C 6,8 C 0,0 km/h (0 Bft)
30.04.2013 08:25 6,8 C 94 % 1017,9 hPa 0,0 l/m 2,1 km/h (1 Bft) W-NW 292 5,9 C 6,9 C 2,9 km/h (1 Bft)
30.04.2013 08:30 6,7 C 94 % 1017,9 hPa 0,0 l/m 3,2 km/h (1 Bft) NW 315 5,8 C 6,8 C 2,7 km/h (1 Bft)
30.04.2013 08:35 6,8 C 94 % 1017,9 hPa 0,0 l/m 3,7 km/h (1 Bft) N-NO 22 5,9 C 6,6 C 4,3 km/h (1 Bft)
30.04.2013 08:40 6,8 C 94 % 1017,9 hPa 0,0 l/m 3,5 km/h (1 Bft) N-NW 337 5,9 C 6,8 C 3,1 km/h (1 Bft)
30.04.2013 08:45 6,8 C 94 % 1017,8 hPa 0,0 l/m 3,5 km/h (1 Bft) N-NW 337 5,9 C 6,8 C 3,7 km/h (1 Bft)
30.04.2013 08:50 7,0 C 94 % 1017,8 hPa 0,0 l/m 2,4 km/h (1 Bft) NW 315 6,1 C 7,0 C 4,3 km/h (1 Bft)
30.04.2013 08:55 7,0 C 94 % 1017,8 hPa 0,0 l/m 2,4 km/h (1 Bft) N 360 6,1 C 7,0 C 4,0 km/h (1 Bft)
30.04.2013 09:00 7,0 C 94 % 1017,8 hPa 0,0 l/m 3,1 km/h (1 Bft) N-NW 337 6,1 C 7,1 C 2,7 km/h (1 Bft)
30.04.2013 09:05 7,0 C 94 % 1017,9 hPa 0,0 l/m 2,7 km/h (1 Bft) N-NW 337 6,1 C 7,2 C 3,5 km/h (1 Bft)
30.04.2013 09:10 7,2 C 94 % 1017,9 hPa 0,0 l/m 2,6 km/h (1 Bft) N-NW 337 6,3 C 7,3 C 2,6 km/h (1 Bft)
30.04.2013 09:15 7,2 C 94 % 1017,9 hPa 0,0 l/m 2,7 km/h (1 Bft) N 360 6,3 C 7,3 C 3,7 km/h (1 Bft)
30.04.2013 09:20 7,3 C 94 % 1017,9 hPa 0,0 l/m 1,8 km/h (1 Bft) W-SW 247 6,4 C 7,5 C 0,0 km/h (0 Bft)
30.04.2013 09:25 7,5 C 94 % 1018,1 hPa 0,0 l/m 1,1 km/h (1 Bft) W-SW 247 6,6 C 7,6 C 0,0 km/h (0 Bft)
30.04.2013 09:30 7,6 C 94 % 1018,1 hPa 0,0 l/m 1,3 km/h (1 Bft) W-NW 292 6,7 C 7,6 C 0,0 km/h (0 Bft)
30.04.2013 09:35 7,4 C 94 % 1018,1 hPa 0,0 l/m 1,3 km/h (1 Bft) NW 315 6,5 C 7,6 C 1,6 km/h (1 Bft)
30.04.2013 09:40 7,6 C 94 % 1018,1 hPa 0,0 l/m 0,5 km/h (0 Bft) SW 225 6,7 C 7,6 C 0,0 km/h (0 Bft)
30.04.2013 09:45 7,7 C 94 % 1018,0 hPa 0,0 l/m 0,6 km/h (0 Bft) S 180 6,8 C 7,6 C 5,3 km/h (1 Bft)
30.04.2013 09:50 7,7 C 94 % 1018,0 hPa 0,0 l/m 1,4 km/h (1 Bft) SO 135 6,8 C 7,6 C 0,0 km/h (0 Bft)
30.04.2013 09:55 7,6 C 93 % 1018,0 hPa 0,0 l/m 1,1 km/h (1 Bft) N 360 6,5 C 7,7 C 0,0 km/h (0 Bft)
30.04.2013 10:00 7,5 C 93 % 1018,0 hPa 0,0 l/m 1,3 km/h (1 Bft) W-NW 292 6,4 C 7,6 C 3,9 km/h (1 Bft)
30.04.2013 10:05 7,6 C 93 % 1018,0 hPa 0,0 l/m 1,4 km/h (1 Bft) W 270 6,5 C 7,5 C 0,0 km/h (0 Bft)
30.04.2013 10:10 7,7 C 93 % 1018,0 hPa 0,0 l/m 0,8 km/h (0 Bft) S 180 6,6 C 7,7 C 2,1 km/h (1 Bft)
30.04.2013 10:15 7,7 C 93 % 1018,0 hPa 0,0 l/m 0,8 km/h (0 Bft) W 270 6,6 C 7,7 C 1,8 km/h (1 Bft)
30.04.2013 10:20 7,8 C 93 % 1018,0 hPa 0,0 l/m 0,8 km/h (0 Bft) W 270 6,7 C 7,8 C 2,3 km/h (1 Bft)
30.04.2013 10:25 7,8 C 93 % 1018,1 hPa 0,0 l/m 0,3 km/h (0 Bft) W 270 6,7 C 7,8 C 0,0 km/h (0 Bft)
30.04.2013 10:30 7,9 C 93 % 1018,1 hPa 0,0 l/m 0,8 km/h (0 Bft) S-SW 202 6,8 C 7,8 C 0,0 km/h (0 Bft)
30.04.2013 10:35 8,0 C 92 % 1018,1 hPa 0,0 l/m 0,6 km/h (0 Bft) N-NW 337 6,8 C 8,0 C 0,0 km/h (0 Bft)
30.04.2013 10:40 8,0 C 92 % 1018,1 hPa 0,0 l/m 0,6 km/h (0 Bft) W 270 6,8 C 8,2 C 2,1 km/h (1 Bft)
30.04.2013 10:45 7,9 C 92 % 1018,2 hPa 0,0 l/m 1,3 km/h (1 Bft) W-SW 247 6,7 C 8,2 C 1,9 km/h (1 Bft)
30.04.2013 10:50 8,0 C 92 % 1018,2 hPa 0,0 l/m 1,8 km/h (1 Bft) S 180 6,8 C 8,1 C 1,9 km/h (1 Bft)
30.04.2013 10:55 8,3 C 92 % 1018,2 hPa 0,0 l/m 1,6 km/h (1 Bft) S 180 7,1 C 8,2 C 3,1 km/h (1 Bft)
30.04.2013 11:00 8,7 C 91 % 1018,2 hPa 0,0 l/m 0,8 km/h (0 Bft) N 360 7,3 C 9,0 C 0,0 km/h (0 Bft)
30.04.2013 11:05 9,2 C 91 % 1018,2 hPa 0,0 l/m 0,6 km/h (0 Bft) SO 135 7,8 C 9,6 C 0,0 km/h (0 Bft)
30.04.2013 11:10 9,1 C 89 % 1018,2 hPa 0,0 l/m 1,1 km/h (1 Bft) N-NW 337 7,4 C 10,3 C 2,4 km/h (1 Bft)
30.04.2013 11:15 9,2 C 89 % 1018,2 hPa 0,0 l/m 1,6 km/h (1 Bft) NW 315 7,5 C 10,2 C 3,1 km/h (1 Bft)
30.04.2013 11:20 9,8 C 88 % 1018,2 hPa 0,0 l/m 1,4 km/h (1 Bft) W-SW 247 7,9 C 10,5 C 1,8 km/h (1 Bft)
30.04.2013 11:25 10,0 C 88 % 1018,3 hPa 0,0 l/m 0,8 km/h (0 Bft) S-SO 157 8,1 C 10,9 C 1,8 km/h (1 Bft)
30.04.2013 11:30 9,8 C 87 % 1018,3 hPa 0,0 l/m 1,9 km/h (1 Bft) S-SW 202 7,7 C 10,8 C 5,1 km/h (1 Bft)
30.04.2013 11:35 9,9 C 87 % 1018,3 hPa 0,0 l/m 2,7 km/h (1 Bft) S-SW 202 7,8 C 10,6 C 1,8 km/h (1 Bft)
30.04.2013 11:40 10,2 C 86 % 1018,3 hPa 0,0 l/m 2,6 km/h (1 Bft) S 180 8,0 C 10,8 C 1,8 km/h (1 Bft)
30.04.2013 11:45 10,3 C 85 % 1018,2 hPa 0,0 l/m 2,6 km/h (1 Bft) S 180 7,9 C 11,0 C 2,9 km/h (1 Bft)
30.04.2013 11:50 10,9 C 84 % 1018,2 hPa 0,0 l/m 2,3 km/h (1 Bft) S-SW 202 8,3 C 11,7 C 3,1 km/h (1 Bft)
30.04.2013 11:55 11,3 C 84 % 1018,2 hPa 0,0 l/m 1,6 km/h (1 Bft) S 180 8,7 C 12,2 C 0,0 km/h (0 Bft)
30.04.2013 12:00 10,9 C 82 % 1018,2 hPa 0,0 l/m 1,9 km/h (1 Bft) W-SW 247 7,9 C 12,7 C 5,1 km/h (1 Bft)
30.04.2013 12:05 10,7 C 82 % 1018,2 hPa 0,0 l/m 2,3 km/h (1 Bft) W-SW 247 7,8 C 12,3 C 2,9 km/h (1 Bft)
30.04.2013 12:10 10,0 C 81 % 1018,2 hPa 0,0 l/m 2,6 km/h (1 Bft) W-NW 292 6,9 C 11,6 C 0,0 km/h (0 Bft)
30.04.2013 12:15 10,4 C 82 % 1018,2 hPa 0,0 l/m 2,3 km/h (1 Bft) W-SW 247 7,5 C 11,5 C 2,7 km/h (1 Bft)
30.04.2013 12:20 10,3 C 81 % 1018,2 hPa 0,0 l/m 1,9 km/h (1 Bft) W-NW 292 7,2 C 11,4 C 6,3 km/h (2 Bft)
30.04.2013 12:25 10,5 C 82 % 1018,4 hPa 0,0 l/m 1,9 km/h (1 Bft) S 180 7,6 C 11,3 C 0,0 km/h (0 Bft)
30.04.2013 12:30 10,9 C 82 % 1018,4 hPa 0,0 l/m 1,9 km/h (1 Bft) N-NW 337 7,9 C 11,6 C 3,5 km/h (1 Bft)
30.04.2013 12:35 11,0 C 79 % 1018,4 hPa 0,0 l/m 2,3 km/h (1 Bft) W-NW 292 7,5 C 11,8 C 3,7 km/h (1 Bft)
30.04.2013 12:40 11,5 C 79 % 1018,4 hPa 0,0 l/m 2,7 km/h (1 Bft) W 270 8,0 C 12,5 C 0,0 km/h (0 Bft)
30.04.2013 12:45 11,9 C 77 % 1018,4 hPa 0,0 l/m 1,9 km/h (1 Bft) N 360 8,0 C 13,4 C 3,4 km/h (1 Bft)
30.04.2013 12:50 11,4 C 76 % 1018,4 hPa 0,0 l/m 2,7 km/h (1 Bft) N-NO 22 7,3 C 13,8 C 0,0 km/h (0 Bft)
30.04.2013 12:55 11,7 C 77 % 1018,4 hPa 0,0 l/m 2,7 km/h (1 Bft) N-NW 337 7,8 C 14,2 C 0,0 km/h (0 Bft)
30.04.2013 13:00 12,1 C 76 % 1018,4 hPa 0,0 l/m 2,3 km/h (1 Bft) N-NW 337 8,0 C 14,1 C 3,7 km/h (1 Bft)
30.04.2013 13:05 11,8 C 76 % 1018,4 hPa 0,0 l/m 2,1 km/h (1 Bft) N 360 7,7 C 13,9 C 0,0 km/h (0 Bft)
30.04.2013 13:10 12,3 C 75 % 1018,4 hPa 0,0 l/m 1,6 km/h (1 Bft) W 270 8,0 C 14,2 C 5,0 km/h (1 Bft)
30.04.2013 13:15 12,5 C 76 % 1018,4 hPa 0,0 l/m 1,8 km/h (1 Bft) SO 135 8,4 C 14,4 C 0,0 km/h (0 Bft)
30.04.2013 13:20 12,1 C 76 % 1018,4 hPa 0,0 l/m 2,6 km/h (1 Bft) N-NO 22 8,0 C 14,0 C 5,8 km/h (2 Bft)
30.04.2013 13:25 12,0 C 76 % 1018,6 hPa 0,0 l/m 3,5 km/h (1 Bft) W-SW 247 7,9 C 13,5 C 6,6 km/h (2 Bft)
30.04.2013 13:30 12,0 C 77 % 1018,6 hPa 0,0 l/m 4,3 km/h (1 Bft) W-SW 247 8,1 C 12,9 C 6,4 km/h (2 Bft)
30.04.2013 13:35 11,9 C 76 % 1018,6 hPa 0,0 l/m 4,2 km/h (1 Bft) W 270 7,8 C 12,7 C 4,0 km/h (1 Bft)
30.04.2013 13:40 12,3 C 76 % 1018,6 hPa 0,0 l/m 4,0 km/h (1 Bft) W 270 8,2 C 12,8 C 5,5 km/h (1 Bft)
30.04.2013 13:45 12,4 C 75 % 1018,6 hPa 0,0 l/m 3,5 km/h (1 Bft) W-NW 292 8,1 C 13,5 C 4,3 km/h (1 Bft)
30.04.2013 13:50 12,5 C 75 % 1018,6 hPa 0,0 l/m 2,6 km/h (1 Bft) W 270 8,2 C 13,9 C 4,8 km/h (1 Bft)
30.04.2013 13:55 12,5 C 75 % 1018,6 hPa 0,0 l/m 3,4 km/h (1 Bft) W-SW 247 8,2 C 13,6 C 4,3 km/h (1 Bft)
30.04.2013 14:00 11,9 C 76 % 1018,6 hPa 0,0 l/m 4,2 km/h (1 Bft) W-SW 247 7,8 C 13,0 C 2,4 km/h (1 Bft)
30.04.2013 14:05 11,5 C 76 % 1018,9 hPa 0,0 l/m 4,2 km/h (1 Bft) S-SW 202 7,4 C 12,5 C 7,9 km/h (2 Bft)
30.04.2013 14:10 11,7 C 77 % 1018,9 hPa 0,0 l/m 3,4 km/h (1 Bft) W-SW 247 7,8 C 12,2 C 1,6 km/h (1 Bft)
30.04.2013 14:15 11,7 C 77 % 1018,9 hPa 0,0 l/m 3,4 km/h (1 Bft) W-SW 247 7,8 C 12,3 C 6,9 km/h (2 Bft)
30.04.2013 14:20 11,4 C 78 % 1018,9 hPa 0,0 l/m 3,5 km/h (1 Bft) W-SW 247 7,7 C 12,0 C 3,1 km/h (1 Bft)
30.04.2013 14:25 11,2 C 78 % 1018,9 hPa 0,0 l/m 4,2 km/h (1 Bft) W-SW 247 7,5 C 11,8 C 9,0 km/h (2 Bft)
30.04.2013 14:30 11,1 C 79 % 1018,9 hPa 0,0 l/m 3,9 km/h (1 Bft) W-SW 247 7,6 C 11,5 C 4,3 km/h (1 Bft)
30.04.2013 14:35 10,9 C 79 % 1018,9 hPa 0,0 l/m 4,2 km/h (1 Bft) S 180 7,4 C 11,4 C 5,3 km/h (1 Bft)
30.04.2013 14:40 10,6 C 80 % 1018,9 hPa 0,0 l/m 4,3 km/h (1 Bft) S-SW 202 7,3 C 11,0 C 2,6 km/h (1 Bft)
30.04.2013 14:45 10,6 C 81 % 1019,1 hPa 0,0 l/m 4,0 km/h (1 Bft) SW 225 7,5 C 10,9 C 4,2 km/h (1 Bft)
30.04.2013 14:50 10,7 C 81 % 1019,1 hPa 0,0 l/m 3,7 km/h (1 Bft) S-SW 202 7,6 C 10,8 C 3,5 km/h (1 Bft)
30.04.2013 14:55 10,8 C 82 % 1019,1 hPa 0,0 l/m 3,9 km/h (1 Bft) W-SW 247 7,9 C 10,8 C 3,4 km/h (1 Bft)
30.04.2013 15:00 10,6 C 81 % 1019,1 hPa 0,0 l/m 3,1 km/h (1 Bft) W-SW 247 7,5 C 10,9 C 5,5 km/h (1 Bft)
30.04.2013 15:05 10,6 C 82 % 1018,9 hPa 0,0 l/m 2,6 km/h (1 Bft) S-SO 157 7,7 C 10,9 C 1,9 km/h (1 Bft)
30.04.2013 15:10 10,4 C 82 % 1018,9 hPa 0,0 l/m 3,1 km/h (1 Bft) W-SW 247 7,5 C 10,9 C 5,6 km/h (1 Bft)
30.04.2013 15:15 10,5 C 82 % 1018,9 hPa 0,0 l/m 3,1 km/h (1 Bft) S-SW 202 7,6 C 10,8 C 3,4 km/h (1 Bft)
30.04.2013 15:20 10,4 C 82 % 1018,9 hPa 0,0 l/m 3,4 km/h (1 Bft) W-SW 247 7,5 C 10,7 C 5,3 km/h (1 Bft)
30.04.2013 15:25 10,5 C 83 % 1018,9 hPa 0,0 l/m 3,1 km/h (1 Bft) W-SW 247 7,7 C 10,7 C 2,9 km/h (1 Bft)
30.04.2013 15:30 10,5 C 83 % 1018,9 hPa 0,0 l/m 3,1 km/h (1 Bft) S 180 7,7 C 10,7 C 1,6 km/h (1 Bft)
30.04.2013 15:35 10,5 C 83 % 1018,9 hPa 0,0 l/m 2,9 km/h (1 Bft) W-SW 247 7,7 C 10,7 C 1,6 km/h (1 Bft)
30.04.2013 15:40 10,4 C 83 % 1018,9 hPa 0,0 l/m 2,7 km/h (1 Bft) S-SW 202 7,6 C 10,6 C 1,9 km/h (1 Bft)
30.04.2013 15:45 10,4 C 83 % 1019,2 hPa 0,0 l/m 2,9 km/h (1 Bft) S 180 7,6 C 10,6 C 4,0 km/h (1 Bft)
30.04.2013 15:50 10,4 C 83 % 1019,2 hPa 0,0 l/m 3,2 km/h (1 Bft) W-SW 247 7,6 C 10,6 C 3,4 km/h (1 Bft)
30.04.2013 15:55 10,4 C 83 % 1019,2 hPa 0,0 l/m 2,6 km/h (1 Bft) S 180 7,6 C 10,6 C 1,9 km/h (1 Bft)
30.04.2013 16:00 10,5 C 83 % 1019,2 hPa 0,0 l/m 2,6 km/h (1 Bft) W-SW 247 7,7 C 10,7 C 3,9 km/h (1 Bft)
30.04.2013 16:05 10,5 C 83 % 1018,9 hPa 0,0 l/m 2,9 km/h (1 Bft) S 180 7,7 C 10,7 C 2,4 km/h (1 Bft)
30.04.2013 16:10 10,5 C 83 % 1018,9 hPa 0,0 l/m 2,4 km/h (1 Bft) W-SW 247 7,7 C 10,7 C 1,6 km/h (1 Bft)
30.04.2013 16:15 10,5 C 83 % 1018,9 hPa 0,0 l/m 1,3 km/h (1 Bft) SO 135 7,7 C 10,8 C 0,0 km/h (0 Bft)
30.04.2013 16:20 10,5 C 82 % 1018,9 hPa 0,0 l/m 0,6 km/h (0 Bft) W-SW 247 7,6 C 10,9 C 1,9 km/h (1 Bft)
30.04.2013 16:25 10,7 C 83 % 1018,8 hPa 0,0 l/m 1,1 km/h (1 Bft) S-SW 202 7,9 C 10,9 C 4,3 km/h (1 Bft)
30.04.2013 16:30 10,5 C 82 % 1018,8 hPa 0,0 l/m 2,4 km/h (1 Bft) W-NW 292 7,6 C 10,9 C 1,9 km/h (1 Bft)
30.04.2013 16:35 10,7 C 82 % 1018,8 hPa 0,0 l/m 3,2 km/h (1 Bft) W-SW 247 7,8 C 10,9 C 5,8 km/h (2 Bft)
30.04.2013 16:40 10,8 C 82 % 1018,8 hPa 0,0 l/m 2,4 km/h (1 Bft) S-SO 157 7,9 C 11,0 C 4,2 km/h (1 Bft)
30.04.2013 16:45 10,9 C 82 % 1018,9 hPa 0,0 l/m 3,1 km/h (1 Bft) W-SW 247 7,9 C 11,1 C 4,7 km/h (1 Bft)
30.04.2013 16:50 10,7 C 81 % 1018,9 hPa 0,0 l/m 3,9 km/h (1 Bft) S 180 7,6 C 11,1 C 3,1 km/h (1 Bft)
30.04.2013 16:55 10,8 C 81 % 1018,9 hPa 0,0 l/m 3,4 km/h (1 Bft) S-SO 157 7,7 C 11,2 C 3,4 km/h (1 Bft)
30.04.2013 17:00 10,8 C 81 % 1018,9 hPa 0,0 l/m 3,5 km/h (1 Bft) S 180 7,7 C 11,2 C 5,6 km/h (1 Bft)
30.04.2013 17:05 10,9 C 82 % 1019,2 hPa 0,0 l/m 3,9 km/h (1 Bft) S-SW 202 7,9 C 11,1 C 4,8 km/h (1 Bft)
30.04.2013 17:10 10,9 C 81 % 1019,2 hPa 0,0 l/m 4,3 km/h (1 Bft) S 180 7,8 C 11,1 C 4,0 km/h (1 Bft)
30.04.2013 17:15 10,8 C 81 % 1019,2 hPa 0,0 l/m 4,5 km/h (1 Bft) S-SW 202 7,7 C 11,1 C 8,0 km/h (2 Bft)
30.04.2013 17:20 10,9 C 81 % 1019,2 hPa 0,0 l/m 4,5 km/h (1 Bft) S 180 7,8 C 11,2 C 4,3 km/h (1 Bft)
30.04.2013 17:25 10,9 C 81 % 1019,3 hPa 0,0 l/m 4,3 km/h (1 Bft) S 180 7,8 C 11,2 C 5,1 km/h (1 Bft)
30.04.2013 17:30 10,8 C 81 % 1019,3 hPa 0,0 l/m 3,7 km/h (1 Bft) W-SW 247 7,7 C 11,2 C 2,4 km/h (1 Bft)
30.04.2013 17:35 10,8 C 81 % 1019,3 hPa 0,0 l/m 3,9 km/h (1 Bft) S 180 7,7 C 11,2 C 4,3 km/h (1 Bft)
30.04.2013 17:40 10,7 C 81 % 1019,3 hPa 0,0 l/m 3,5 km/h (1 Bft) W-SW 247 7,6 C 11,1 C 5,8 km/h (2 Bft)
30.04.2013 17:45 10,9 C 82 % 1019,3 hPa 0,0 l/m 3,5 km/h (1 Bft) S-SW 202 7,9 C 11,1 C 5,1 km/h (1 Bft)
30.04.2013 17:50 11,0 C 82 % 1019,3 hPa 0,0 l/m 4,0 km/h (1 Bft) S 180 8,0 C 11,3 C 8,2 km/h (2 Bft)
30.04.2013 17:55 11,0 C 81 % 1019,3 hPa 0,0 l/m 4,8 km/h (1 Bft) S-SO 157 7,9 C 11,2 C 3,7 km/h (1 Bft)
30.04.2013 18:00 11,2 C 81 % 1019,3 hPa 0,0 l/m 5,8 km/h (2 Bft) S 180 8,1 C 11,1 C 6,3 km/h (2 Bft)
30.04.2013 18:05 11,4 C 81 % 1019,4 hPa 0,0 l/m 5,5 km/h (1 Bft) S 180 8,3 C 11,4 C 9,0 km/h (2 Bft)
30.04.2013 18:10 11,5 C 79 % 1019,4 hPa 0,0 l/m 5,3 km/h (1 Bft) SW 225 8,0 C 11,6 C 2,7 km/h (1 Bft)
30.04.2013 18:15 11,6 C 80 % 1019,4 hPa 0,0 l/m 4,3 km/h (1 Bft) S 180 8,3 C 11,8 C 2,1 km/h (1 Bft)
30.04.2013 18:20 11,4 C 80 % 1019,4 hPa 0,0 l/m 2,6 km/h (1 Bft) O-SO 112 8,1 C 11,8 C 2,6 km/h (1 Bft)
30.04.2013 18:25 11,4 C 80 % 1019,6 hPa 0,0 l/m 3,4 km/h (1 Bft) S 180 8,1 C 11,8 C 3,5 km/h (1 Bft)
30.04.2013 18:30 11,2 C 80 % 1019,6 hPa 0,0 l/m 4,0 km/h (1 Bft) O-SO 112 7,9 C 11,7 C 6,3 km/h (2 Bft)
30.04.2013 18:35 11,2 C 80 % 1019,6 hPa 0,0 l/m 3,7 km/h (1 Bft) S-SW 202 7,9 C 11,6 C 4,0 km/h (1 Bft)
30.04.2013 18:40 11,2 C 80 % 1019,6 hPa 0,0 l/m 4,2 km/h (1 Bft) SO 135 7,9 C 11,6 C 4,0 km/h (1 Bft)
30.04.2013 18:45 11,2 C 80 % 1019,6 hPa 0,0 l/m 4,2 km/h (1 Bft) S-SO 157 7,9 C 11,4 C 6,6 km/h (2 Bft)
30.04.2013 18:50 11,0 C 80 % 1019,6 hPa 0,0 l/m 3,5 km/h (1 Bft) S-SO 157 7,7 C 11,3 C 2,7 km/h (1 Bft)
30.04.2013 18:55 11,0 C 81 % 1019,6 hPa 0,0 l/m 3,5 km/h (1 Bft) S 180 7,9 C 11,3 C 6,6 km/h (2 Bft)
30.04.2013 19:00 10,8 C 81 % 1019,6 hPa 0,0 l/m 4,2 km/h (1 Bft) S 180 7,7 C 11,1 C 9,2 km/h (2 Bft)
30.04.2013 19:05 10,9 C 82 % 1019,9 hPa 0,0 l/m 4,3 km/h (1 Bft) S-SO 157 7,9 C 11,1 C 4,8 km/h (1 Bft)
30.04.2013 19:10 10,8 C 82 % 1019,9 hPa 0,0 l/m 3,9 km/h (1 Bft) S-SO 157 7,9 C 11,1 C 3,5 km/h (1 Bft)
30.04.2013 19:15 10,7 C 82 % 1019,9 hPa 0,0 l/m 3,9 km/h (1 Bft) S-SO 157 7,8 C 11,0 C 5,8 km/h (2 Bft)
30.04.2013 19:20 10,6 C 82 % 1019,9 hPa 0,0 l/m 4,2 km/h (1 Bft) O-SO 112 7,7 C 10,9 C 7,2 km/h (2 Bft)
30.04.2013 19:25 10,5 C 83 % 1020,1 hPa 0,0 l/m 4,7 km/h (1 Bft) SO 135 7,7 C 10,7 C 4,2 km/h (1 Bft)
30.04.2013 19:30 10,5 C 83 % 1020,1 hPa 0,0 l/m 4,2 km/h (1 Bft) S 180 7,7 C 10,6 C 6,1 km/h (2 Bft)
30.04.2013 19:35 10,4 C 83 % 1020,1 hPa 0,0 l/m 3,7 km/h (1 Bft) S-SO 157 7,6 C 10,6 C 5,0 km/h (1 Bft)
30.04.2013 19:40 10,4 C 83 % 1020,1 hPa 0,0 l/m 3,4 km/h (1 Bft) S-SO 157 7,6 C 10,6 C 3,9 km/h (1 Bft)
30.04.2013 19:45 10,3 C 83 % 1020,4 hPa 0,0 l/m 2,9 km/h (1 Bft) S 180 7,5 C 10,5 C 1,8 km/h (1 Bft)
30.04.2013 19:50 10,3 C 83 % 1020,4 hPa 0,0 l/m 2,4 km/h (1 Bft) O-SO 112 7,5 C 10,5 C 2,4 km/h (1 Bft)
30.04.2013 19:55 10,3 C 83 % 1020,4 hPa 0,0 l/m 1,9 km/h (1 Bft) S 180 7,5 C 10,5 C 4,8 km/h (1 Bft)
30.04.2013 20:00 10,3 C 83 % 1020,4 hPa 0,0 l/m 1,6 km/h (1 Bft) SO 135 7,5 C 10,5 C 2,4 km/h (1 Bft)
30.04.2013 20:05 10,2 C 83 % 1020,4 hPa 0,0 l/m 1,6 km/h (1 Bft) NO 45 7,4 C 10,4 C 3,1 km/h (1 Bft)
30.04.2013 20:10 10,2 C 84 % 1020,4 hPa 0,0 l/m 1,0 km/h (0 Bft) O-SO 112 7,6 C 10,4 C 0,0 km/h (0 Bft)
30.04.2013 20:15 10,2 C 84 % 1020,4 hPa 0,0 l/m 1,1 km/h (1 Bft) O-SO 112 7,6 C 10,3 C 2,7 km/h (1 Bft)
30.04.2013 20:20 10,2 C 84 % 1020,4 hPa 0,0 l/m 1,3 km/h (1 Bft) O-SO 112 7,6 C 10,3 C 0,0 km/h (0 Bft)
30.04.2013 20:25 10,1 C 84 % 1020,2 hPa 0,0 l/m 1,1 km/h (1 Bft) O 90 7,5 C 10,3 C 1,8 km/h (1 Bft)
30.04.2013 20:30 10,1 C 84 % 1020,2 hPa 0,0 l/m 1,3 km/h (1 Bft) O-SO 112 7,5 C 10,3 C 2,1 km/h (1 Bft)
30.04.2013 20:35 10,1 C 84 % 1020,2 hPa 0,0 l/m 1,6 km/h (1 Bft) O-SO 112 7,5 C 10,3 C 1,6 km/h (1 Bft)
30.04.2013 20:40 10,1 C 84 % 1020,2 hPa 0,0 l/m 1,0 km/h (0 Bft) O 90 7,5 C 10,3 C 2,6 km/h (1 Bft)
30.04.2013 20:45 10,0 C 84 % 1020,1 hPa 0,0 l/m 1,0 km/h (0 Bft) O 90 7,4 C 10,3 C 1,6 km/h (1 Bft)
30.04.2013 20:50 10,1 C 84 % 1020,1 hPa 0,0 l/m 1,3 km/h (1 Bft) O 90 7,5 C 10,2 C 1,6 km/h (1 Bft)
30.04.2013 20:55 10,1 C 85 % 1020,1 hPa 0,0 l/m 1,0 km/h (0 Bft) O-SO 112 7,7 C 10,2 C 0,0 km/h (0 Bft)
30.04.2013 21:00 10,0 C 85 % 1020,1 hPa 0,0 l/m 0,6 km/h (0 Bft) NO 45 7,6 C 10,2 C 2,1 km/h (1 Bft)
30.04.2013 21:05 10,0 C 85 % 1020,1 hPa 0,0 l/m 1,3 km/h (1 Bft) O-SO 112 7,6 C 10,2 C 1,9 km/h (1 Bft)
30.04.2013 21:10 10,0 C 85 % 1020,1 hPa 0,0 l/m 1,1 km/h (1 Bft) O 90 7,6 C 10,2 C 0,0 km/h (0 Bft)
30.04.2013 21:15 10,0 C 85 % 1020,1 hPa 0,0 l/m 0,8 km/h (0 Bft) O-NO 67 7,6 C 10,2 C 0,0 km/h (0 Bft)
30.04.2013 21:20 10,0 C 85 % 1020,1 hPa 0,0 l/m 0,5 km/h (0 Bft) S 180 7,6 C 10,1 C 0,0 km/h (0 Bft)
30.04.2013 21:25 10,0 C 85 % 1020,3 hPa 0,0 l/m 0,5 km/h (0 Bft) O-SO 112 7,6 C 10,2 C 1,6 km/h (1 Bft)
30.04.2013 21:30 10,0 C 85 % 1020,3 hPa 0,0 l/m 0,8 km/h (0 Bft) SO 135 7,6 C 10,2 C 0,0 km/h (0 Bft)
30.04.2013 21:35 10,0 C 85 % 1020,3 hPa 0,0 l/m 1,1 km/h (1 Bft) O 90 7,6 C 10,2 C 1,6 km/h (1 Bft)
30.04.2013 21:40 9,9 C 85 % 1020,3 hPa 0,0 l/m 1,1 km/h (1 Bft) O 90 7,5 C 10,1 C 1,8 km/h (1 Bft)
30.04.2013 21:45 9,9 C 85 % 1020,6 hPa 0,0 l/m 1,0 km/h (0 Bft) O-NO 67 7,5 C 10,1 C 1,8 km/h (1 Bft)
30.04.2013 21:50 10,0 C 85 % 1020,6 hPa 0,0 l/m 1,1 km/h (1 Bft) O 90 7,6 C 10,0 C 3,1 km/h (1 Bft)
30.04.2013 21:55 10,0 C 85 % 1020,6 hPa 0,0 l/m 1,1 km/h (1 Bft) S-SO 157 7,6 C 10,1 C 0,0 km/h (0 Bft)
30.04.2013 22:00 9,9 C 85 % 1020,6 hPa 0,0 l/m 1,3 km/h (1 Bft) O 90 7,5 C 10,1 C 3,5 km/h (1 Bft)
30.04.2013 22:05 9,9 C 85 % 1020,7 hPa 0,0 l/m 1,1 km/h (1 Bft) O-SO 112 7,5 C 10,1 C 0,0 km/h (0 Bft)
30.04.2013 22:10 9,8 C 86 % 1020,7 hPa 0,0 l/m 1,6 km/h (1 Bft) O 90 7,6 C 10,0 C 0,0 km/h (0 Bft)
30.04.2013 22:15 9,8 C 86 % 1020,7 hPa 0,0 l/m 1,3 km/h (1 Bft) N-NO 22 7,6 C 10,0 C 0,0 km/h (0 Bft)
30.04.2013 22:20 9,8 C 86 % 1020,7 hPa 0,0 l/m 1,3 km/h (1 Bft) O-SO 112 7,6 C 10,0 C 1,9 km/h (1 Bft)
30.04.2013 22:25 9,8 C 86 % 1020,8 hPa 0,0 l/m 1,4 km/h (1 Bft) O-SO 112 7,6 C 10,0 C 1,8 km/h (1 Bft)
30.04.2013 22:30 9,8 C 86 % 1020,8 hPa 0,0 l/m 1,9 km/h (1 Bft) O 90 7,6 C 10,0 C 1,9 km/h (1 Bft)
30.04.2013 22:35 9,8 C 86 % 1020,8 hPa 0,0 l/m 1,8 km/h (1 Bft) SO 135 7,6 C 10,0 C 0,0 km/h (0 Bft)
30.04.2013 22:40 9,8 C 86 % 1020,8 hPa 0,0 l/m 1,9 km/h (1 Bft) O-NO 67 7,6 C 9,9 C 2,7 km/h (1 Bft)
30.04.2013 22:45 9,8 C 86 % 1020,4 hPa 0,0 l/m 2,1 km/h (1 Bft) O-SO 112 7,6 C 9,9 C 0,0 km/h (0 Bft)
30.04.2013 22:50 9,8 C 87 % 1020,4 hPa 0,0 l/m 2,1 km/h (1 Bft) NO 45 7,7 C 9,9 C 3,9 km/h (1 Bft)
30.04.2013 22:55 9,7 C 87 % 1020,4 hPa 0,0 l/m 1,9 km/h (1 Bft) N-NO 22 7,6 C 9,9 C 0,0 km/h (0 Bft)
30.04.2013 23:00 9,7 C 87 % 1020,4 hPa 0,0 l/m 1,3 km/h (1 Bft) O-NO 67 7,6 C 9,9 C 2,9 km/h (1 Bft)
30.04.2013 23:05 9,7 C 87 % 1021,1 hPa 0,0 l/m 0,6 km/h (0 Bft) O-NO 67 7,6 C 9,9 C 0,0 km/h (0 Bft)
30.04.2013 23:10 9,7 C 87 % 1021,1 hPa 0,0 l/m 0,8 km/h (0 Bft) NO 45 7,6 C 9,8 C 0,0 km/h (0 Bft)
30.04.2013 23:15 9,7 C 87 % 1021,1 hPa 0,0 l/m 0,8 km/h (0 Bft) O 90 7,6 C 9,8 C 0,0 km/h (0 Bft)
30.04.2013 23:20 9,7 C 87 % 1021,1 hPa 0,0 l/m 0,5 km/h (0 Bft) O 90 7,6 C 9,7 C 0,0 km/h (0 Bft)
30.04.2013 23:25 9,6 C 87 % 1021,0 hPa 0,0 l/m 0,5 km/h (0 Bft) O-NO 67 7,5 C 9,7 C 2,4 km/h (1 Bft)
30.04.2013 23:30 9,6 C 87 % 1021,0 hPa 0,0 l/m 1,1 km/h (1 Bft) NO 45 7,5 C 9,7 C 0,0 km/h (0 Bft)
30.04.2013 23:35 9,6 C 87 % 1021,0 hPa 0,0 l/m 1,1 km/h (1 Bft) O-NO 67 7,5 C 9,7 C 2,3 km/h (1 Bft)
30.04.2013 23:40 9,6 C 87 % 1021,0 hPa 0,0 l/m 0,6 km/h (0 Bft) NO 45 7,5 C 9,7 C 0,0 km/h (0 Bft)
30.04.2013 23:45 9,5 C 86 % 1020,8 hPa 0,0 l/m 0,6 km/h (0 Bft) O-SO 112 7,3 C 9,6 C 0,0 km/h (0 Bft)
30.04.2013 23:50 9,6 C 87 % 1020,8 hPa 0,0 l/m 0,0 km/h (0 Bft) NO 45 7,5 C 9,6 C 0,0 km/h (0 Bft)
30.04.2013 23:55 9,5 C 86 % 1020,8 hPa 0,0 l/m 0,0 km/h (0 Bft) NO 45 7,3 C 9,6 C 1,8 km/h (1 Bft)
_ Min-Zeit 03:30 13:55 05:40 - 23:55 - - 03:05 03:05 23:50
Minimum _ 5,2 C 75 % 1017,4 hPa - 0,0 km/h (0 Bft) - - 4,2 C 5,1 C 0,0 km/h (0 Bft)
_ Max-Zeit 13:55 05:55 23:20 23:55 18:00 - - 11:55 13:15 19:00
Maximum _ 12,5 C 95 % 1021,1 hPa 0,0 l/m 5,8 km/h
S (2 Bft)
- - 8,7 C 14,4 C 9,2 km/h
S (2 Bft)
Durchschnitt _ 8,6 C 87 % 1018,9 hPa #0,0 l/m 2,0 km/h (1 Bft) W-SW - 6,6 C 8,9 C 2,5 km/h (1 Bft)